This demonstration page uses our WeatherBlox Daily Observations layout. Learn more.

Left ArrowRight Arrow

Hourly Observations for June 1, 2017

Temp ( °F °C ) Dew Point ( °F °C ) Humidity (%) Winds ( mph kmh ) Pressure ( in mb ) Visibility ( mi km ) Precip ( " mm )
12:52 am 00:52 Clear 63 17.2 60 15.6 90 90 SSE 5 7 30.05 1018 10 16 0.00 0.00
1:52 am 01:52 Clear 64 17.8 60 15.6 87 87 Calm 30.04 1017 10 16 0.00 0.00
2:52 am 02:52 Clear 61 16.1 59 15 93 93 ESE 7 11 30.03 1017 10 16 0.00 0.00
3:52 am 03:52 Clear 62 16.7 59 15 90 90 SE 7 11 30.03 1017 10 16 0.00 0.00
4:52 am 04:52 Clear 62 16.7 59 15 90 90 SE 6 9 30.03 1017 10 16 0.00 0.00
5:52 am 05:52 Partly Cloudy 63 17.2 60 15.6 90 90 SSE 5 7 30.05 1018 10 16 0.00 0.00
6:52 am 06:52 Cloudy 65 18.3 60 15.6 84 84 ESE 3 6 30.08 1019 10 16 0.00 0.00
7:52 am 07:52 Mostly Cloudy 64 17.8 60 15.6 87 87 NNE 6 9 30.09 1019 10 16 0.00 0.00
8:01 am 08:01 Mostly Cloudy with Nearby Thunderstorms 65 18.3 61 16.1 87 87 N 7 11 30.09 1019 10 16 0.00 0.00
8:22 am 08:22 Mostly Cloudy with Thunderstorms 64 17.8 60 15.6 87 87 N 10 17 30.12 1020 10 16 0.00 0.00
8:37 am 08:37 Cloudy with Nearby Thunderstorms 66 18.9 58 14.4 75 75 NNE 13 20 30.12 1020 10 16 0.00 0.00
8:49 am 08:49 Cloudy 66 19 59 15 78 78 NE 12 19 30.12 1020 10 16 0.00 0.00
8:52 am 08:52 Cloudy 66 18.9 59 15 78 78 NE 8 13 30.12 1020 10 16 0.00 0.00
9:03 am 09:03 Cloudy with Thunderstorms 66 18.9 59 15 78 78 NNE 12 19 30.12 1020 10 16 0.00 0.00
9:19 am 09:19 Mostly Cloudy with Nearby Thunderstorms 68 20 60 15.6 76 76 NE 10 17 30.12 1020 10 16 0.00 0.00
9:31 am 09:31 Mostly Cloudy 69 20.6 60 15.6 73 73 NE 13 20 30.12 1020 10 16 0.00 0.00
9:52 am 09:52 Mostly Cloudy 70 21.1 61 16.1 73 73 NE 14 22 30.11 1020 10 16 0.00 0.00
10:52 am 10:52 Mostly Cloudy 72 22.2 61 16.1 68 68 NNE 14 22 30.11 1020 10 16 0.00 0.00
11:52 am 11:52 Sunny 73 22.8 59 15 62 62 E 13 20 30.09 1019 10 16 0.00 0.00
12:52 pm 12:52 Sunny 76 24.4 60 15.6 58 58 ESE 9 15 30.07 1018 10 16 0.00 0.00
1:52 pm 13:52 Sunny 79 26.1 61 16.1 54 54 ESE 10 17 30.04 1017 10 16 0.00 0.00
2:52 pm 14:52 Sunny 81 27.2 63 17.2 54 54 SSE 7 11 30.01 1016 10 16 0.00 0.00
3:52 pm 15:52 Sunny 82 27.8 64 17.8 55 55 ESE 6 9 30.00 1016 10 16 0.00 0.00
4:52 pm 16:52 Sunny 82 27.8 62 16.7 51 51 S 5 7 30.00 1016 10 16 0.00 0.00
5:52 pm 17:52 Mostly Sunny 81 27.2 65 18.3 58 58 S 8 13 30.00 1016 10 16 0.00 0.00
6:05 pm 18:05 Partly Cloudy with Nearby Thunderstorms 81 27.2 64 17.8 57 57 SSW 9 15 29.97 1015 10 16 0.00 0.00
6:15 pm 18:15 Partly Cloudy with Thunderstorms 81 27.2 64 17.8 57 57 SSW 12 19 29.97 1015 10 16 0.00 0.00
6:52 pm 18:52 Mostly Cloudy with Thunderstorms 77 25 63 17.2 62 62 E 13 20 30.00 1016 10 16 0.00 0.00
7:07 pm 19:07 Mostly Cloudy with Thunderstorms 74 23.3 59 15 60 60 E 12 19 29.97 1015 10 16 0.00 0.00
7:37 pm 19:37 Cloudy 72 22.2 63 17.2 73 73 E 10 17 30.00 1016 10 16 0.00 0.03
7:52 pm 19:52 Cloudy with Rain 70 21.1 66 18.9 87 87 ESE 17 28 30.00 1016 4 6 0.02 0.51
8:01 pm 20:01 Cloudy with Light Rain 71 21.7 67 19.4 87 87 ESE 13 20 30.00 1016 3 4 0.03 0.76
8:09 pm 20:09 Cloudy with Light Rain 71 21.7 67 19.4 87 87 ESE 15 24 30.00 1016 7 11 0.04 1.02
8:52 pm 20:52 Cloudy 69 20.6 63 17.2 81 81 SE 10 17 30.01 1016 10 16 0.04 1.02
9:52 pm 21:52 Clear 68 20 64 17.8 87 87 S 7 11 30.01 1016 10 16 0.00 0.00
10:52 pm 22:52 Clear 68 20 64 17.8 87 87 SSE 8 13 30.01 1016 10 16 0.00 0.00
11:52 pm 23:52 Clear 67 19.4 64 17.8 91 91 SSE 8 13 30.02 1017 10 16 0.00 0.00

Powered by AerisWeather